| time (UTC) | temp F | wind direction | speed MPH | gust MPH | rain 1hr in | rain 24hr in | rain mn in | humidity % | barometer mb |
| 20260505050216 | 74 | 230 | 2.0 | 6.0 | 0.00 | 0.00 | 0.00 | 72 | 1004.8 |
| 20260505041215 | 75 | 241 | 1.0 | 6.0 | 0.00 | 0.00 | 0.00 | 71 | 1004.8 |
| 20260505040215 | 75 | 296 | 2.0 | 7.0 | 0.00 | 0.00 | 0.00 | 71 | 1005.0 |
| 20260505035215 | 75 | 210 | 1.0 | 11.0 | 0.00 | 0.00 | 0.00 | 70 | 1005.0 |
| 20260505034215 | 75 | 128 | 2.0 | 5.0 | 0.00 | 0.00 | 0.00 | 70 | 1004.9 |
| 20260505033214 | 75 | 212 | 2.0 | 5.0 | 0.00 | 0.00 | 0.00 | 71 | 1004.7 |
| 20260505032214 | 75 | 358 | 1.0 | 5.0 | 0.00 | 0.00 | 0.00 | 70 | 1004.6 |
| 20260505031214 | 75 | 145 | 2.0 | 6.0 | 0.00 | 0.00 | 0.00 | 70 | 1005.0 |
| 20260505030215 | 75 | 151 | 2.0 | 6.0 | 0.00 | 0.00 | 0.00 | 70 | 1004.9 |
| 20260505025213 | 75 | 149 | 1.0 | 7.0 | 0.00 | 0.00 | 0.00 | 70 | 1005.0 |
| 20260505024213 | 75 | 241 | 1.0 | 6.0 | 0.00 | 0.00 | 0.00 | 70 | 1005.0 |
| 20260505023213 | 75 | 162 | 1.0 | 9.0 | 0.00 | 0.00 | 0.00 | 69 | 1004.9 |
| 20260505022214 | 75 | 109 | 1.0 | 4.0 | 0.00 | 0.00 | 0.00 | 69 | 1005.1 |
| 20260505021646 | 75 | 298 | 0.0 | 3.0 | 0.00 | 0.00 | 0.00 | 69 | 1004.8 |
| 20260505020211 | 76 | 223 | 1.0 | 4.0 | 0.00 | 0.00 | 0.00 | 68 | 1004.8 |
| 20260505015213 | 76 | 237 | 1.0 | 5.0 | 0.00 | 0.00 | 0.00 | 68 | 1004.8 |
| 20260505014213 | 76 | 214 | 2.0 | 6.0 | 0.00 | 0.00 | 0.00 | 67 | 1004.8 |
| 20260505013214 | 76 | 141 | 3.0 | 10.0 | 0.00 | 0.00 | 0.00 | 66 | 1004.8 |
| 20260505012214 | 76 | 233 | 2.0 | 10.0 | 0.00 | 0.00 | 0.00 | 66 | 1004.8 |
| 20260505011214 | 77 | 224 | 3.0 | 13.0 | 0.00 | 0.00 | 0.00 | 66 | 1004.9 |
| 20260505010213 | 77 | 168 | 2.0 | 7.0 | 0.00 | 0.00 | 0.00 | 65 | 1004.9 |
| 20260505005213 | 77 | 240 | 1.0 | 10.0 | 0.00 | 0.00 | 0.00 | 64 | 1005.0 |
| 20260505004214 | 78 | 204 | 3.0 | 9.0 | 0.00 | 0.00 | 0.00 | 63 | 1004.8 |
| 20260505003213 | 78 | 172 | 4.0 | 13.0 | 0.00 | 0.00 | 0.00 | 62 | 1004.8 |
| 20260505002214 | 80 | 159 | 2.0 | 7.0 | 0.00 | 0.00 | 0.00 | 61 | 1004.9 |
| 20260505001652 | 80 | 195 | 3.0 | 9.0 | 0.00 | 0.00 | 0.00 | 60 | 1005.0 |
| 20260505000213 | 81 | 227 | 2.0 | 9.0 | 0.00 | 0.00 | 0.00 | 59 | 1005.1 |
| 20260504235215 | 81 | 241 | 2.0 | 12.0 | 0.00 | 0.00 | 0.00 | 59 | 1005.1 |
| 20260504234213 | 81 | 240 | 2.0 | 5.0 | 0.00 | 0.00 | 0.00 | 59 | 1005.2 |
| 20260504233213 | 81 | 219 | 2.0 | 9.0 | 0.00 | 0.00 | 0.00 | 60 | 1005.4 |
| 20260504233139 | 81 | 76 | 2.0 | 11.0 | 0.00 | 0.00 | 0.00 | 59 | 1005.2 |
| 20260504231214 | 82 | 172 | 3.0 | 7.0 | 0.00 | 0.00 | 0.00 | 57 | 1005.2 |
| 20260504230214 | 82 | 255 | 2.0 | 11.0 | 0.00 | 0.00 | 0.00 | 56 | 1005.3 |
| 20260504225215 | 84 | 255 | 1.0 | 7.0 | 0.00 | 0.00 | 0.00 | 56 | 1005.6 |
| 20260504224649 | 84 | 247 | 3.0 | 13.0 | 0.00 | 0.00 | 0.00 | 54 | 1005.5 |
| 20260504223653 | 85 | 183 | 3.0 | 10.0 | 0.00 | 0.00 | 0.00 | 54 | 1005.5 |
| 20260504222214 | 85 | 221 | 2.0 | 7.0 | 0.00 | 0.00 | 0.00 | 55 | 1005.7 |
| 20260504221213 | 85 | 214 | 3.0 | 14.0 | 0.00 | 0.00 | 0.00 | 55 | 1005.6 |
| 20260504220215 | 84 | 197 | 3.0 | 6.0 | 0.00 | 0.00 | 0.00 | 55 | 1005.7 |
| 20260504215215 | 84 | 226 | 2.0 | 6.0 | 0.00 | 0.00 | 0.00 | 55 | 1005.8 |
| 20260504214214 | 84 | 220 | 3.0 | 10.0 | 0.00 | 0.00 | 0.00 | 56 | 1006.1 |
| 20260504213215 | 84 | 203 | 2.0 | 10.0 | 0.00 | 0.00 | 0.00 | 55 | 1006.2 |
| 20260504212214 | 85 | 248 | 2.0 | 9.0 | 0.00 | 0.00 | 0.00 | 54 | 1006.5 |
| 20260504211216 | 85 | 34 | 4.0 | 9.0 | 0.00 | 0.00 | 0.00 | 53 | 1006.4 |
| 20260504210215 | 84 | 226 | 2.0 | 13.0 | 0.00 | 0.00 | 0.00 | 54 | 1006.7 |
| 20260504205216 | 84 | 100 | 2.0 | 9.0 | 0.00 | 0.00 | 0.00 | 57 | 1006.9 |
| 20260504204215 | 84 | 350 | 2.0 | 10.0 | 0.00 | 0.00 | 0.00 | 55 | 1007.1 |
| 20260504203215 | 84 | 240 | 3.0 | 12.0 | 0.00 | 0.00 | 0.00 | 54 | 1007.3 |
| 20260504202215 | 83 | 61 | 2.0 | 11.0 | 0.00 | 0.00 | 0.00 | 56 | 1007.3 |
| 20260504201214 | 83 | 248 | 3.0 | 15.0 | 0.00 | 0.00 | 0.00 | 54 | 1007.7 |
| 20260504200216 | 84 | 269 | 2.0 | 7.0 | 0.00 | 0.00 | 0.00 | 57 | 1007.9 |
| 20260504195215 | 83 | 109 | 3.0 | 13.0 | 0.00 | 0.00 | 0.00 | 53 | 1008.2 |
| 20260504194215 | 83 | 221 | 2.0 | 11.0 | 0.00 | 0.00 | 0.00 | 54 | 1008.3 |
| 20260504193214 | 83 | 251 | 2.0 | 12.0 | 0.00 | 0.00 | 0.00 | 55 | 1008.4 |
| 20260504192215 | 83 | 258 | 3.0 | 10.0 | 0.00 | 0.00 | 0.00 | 53 | 1008.5 |
| 20260504191214 | 83 | 83 | 3.0 | 9.0 | 0.00 | 0.00 | 0.00 | 54 | 1008.7 |
| 20260504190215 | 82 | 223 | 3.0 | 11.0 | 0.00 | 0.00 | 0.00 | 53 | 1009.0 |
| 20260504190135 | 82 | 166 | 5.0 | 12.0 | 0.00 | 0.00 | 0.00 | 53 | 1009.1 |
| 20260504184214 | 81 | 118 | 4.0 | 13.0 | 0.00 | 0.00 | 0.00 | 55 | 1009.1 |
| 20260504183215 | 81 | 190 | 3.0 | 11.0 | 0.00 | 0.00 | 0.00 | 56 | 1009.4 |
| 20260504182214 | 80 | 264 | 3.0 | 11.0 | 0.00 | 0.00 | 0.00 | 56 | 1009.3 |
| 20260504181215 | 80 | 159 | 4.0 | 12.0 | 0.00 | 0.00 | 0.00 | 55 | 1009.6 |
| 20260504180215 | 80 | 293 | 4.0 | 11.0 | 0.00 | 0.00 | 0.00 | 55 | 1009.8 |
| 20260504175215 | 80 | 197 | 4.0 | 11.0 | 0.00 | 0.00 | 0.00 | 55 | 1009.6 |
| 20260504174214 | 80 | 250 | 3.0 | 10.0 | 0.00 | 0.00 | 0.00 | 55 | 1010.1 |
| 20260504173215 | 80 | 303 | 3.0 | 10.0 | 0.00 | 0.00 | 0.00 | 57 | 1010.1 |
| 20260504172214 | 79 | 245 | 2.0 | 13.0 | 0.00 | 0.00 | 0.00 | 56 | 1010.3 |
| 20260504171215 | 78 | 230 | 3.0 | 11.0 | 0.00 | 0.00 | 0.00 | 57 | 1010.5 |
| 20260504170700 | 78 | 162 | 2.0 | 10.0 | 0.00 | 0.00 | 0.00 | 57 | 1010.6 |
| 20260504160214 | 74 | 188 | 3.0 | 12.0 | 0.00 | 0.00 | 0.00 | 59 | 1011.3 |
| 20260504150212 | 71 | 226 | 1.0 | 12.0 | 0.00 | 0.00 | 0.00 | 66 | 1011.9 |
| 20260504141211 | 68 | 283 | 3.0 | 13.0 | 0.00 | 0.00 | 0.00 | 70 | 1011.9 |
| 20260504140213 | 67 | 204 | 2.0 | 9.0 | 0.00 | 0.00 | 0.00 | 71 | 1012.1 |
| 20260504130214 | 63 | 227 | 2.0 | 5.0 | 0.00 | 0.00 | 0.00 | 76 | 1012.3 |
| 20260504120215 | 62 | 190 | 1.0 | 7.0 | 0.00 | 0.00 | 0.00 | 75 | 1011.8 |
| 20260504110214 | 62 | 189 | 1.0 | 7.0 | 0.00 | 0.00 | 0.00 | 74 | 1011.8 |
| 20260504081150 | 65 | 166 | 1.0 | 4.0 | 0.00 | 0.00 | 0.00 | 63 | 1012.7 |
| 20260504080145 | 65 | 149 | 2.0 | 6.0 | 0.00 | 0.00 | 0.00 | 61 | 1012.9 |
| 20260504070140 | 65 | 42 | 0.0 | 4.0 | 0.00 | 0.00 | 0.00 | 61 | 1013.5 |
| 20260504060133 | 66 | 202 | 0.0 | 3.0 | 0.00 | 0.00 | 0.00 | 59 | 1014.2 |